Tracking 30102 objects as of 13-Dec-2024
HD Live streaming from Space Station
objects crossing your sky now

STARLINK-31986

Track STARLINK-31986 now!
10-day predictions
STARLINK-31986 is classified as:


NORAD ID: 60019
Int'l Code: 2024-111D
Perigee: 481.3 km
Apogee: 483.5 km
Inclination: 53.2 °
Period: 94.1 minutes
Semi major axis: 6853 km
RCS: Unknown
Launch date: June 8, 2024
Source: United States (US)
Launch site: AIR FORCE EASTERN TEST RANGE (AFETR)
Your satellite tracking list
Your tracking list is empty




NASA's NSSDC Master Catalog

Two Line Element Set (TLE):
1 60019U 24111D   24347.39223239  .00000502  00000-0  29092-4 0  9991
2 60019  53.1614  16.5806 0001618  82.1924 277.9260 15.30194721 29799
Source of the keplerian elements: AFSPC